Total_Precipitation_Accumulation
0.13 0.19 0.26 0.29 0.24 0.19 0.16 0.20 0.32 0.27 0.26 0.30 0.33 0.29 0.32 0.38 0.32 0.25 0.21 0.18 0.18 0.20 0.23 0.27 0.26 0.24 0.21 0.18 0.18 0.24 0.29 0.36 0.45 0.40 0.34 0.32 0.29 0.23 0.21 0.25 0.30 0.43 0.52 0.57
0.11 0.14 0.18 0.21 0.22 0.16 0.11 0.10 0.13 0.20 0.29 0.29 0.30 0.31 0.31 0.30 0.28 0.22 0.19 0.16 0.15 0.16 0.18 0.19 0.17 0.13 0.09 0.09 0.12 0.19 0.26 0.30 0.37 0.36 0.29 0.24 0.20 0.16 0.16 0.22 0.29 0.37 0.40 0.46
0.17 0.14 0.20 0.22 0.19 0.14 0.09 0.07 0.09 0.22 0.36 0.29 0.27 0.30 0.28 0.27 0.25 0.18 0.13 0.11 0.10 0.08 0.07 0.06 0.06 0.05 0.06 0.07 0.09 0.17 0.26 0.33 0.39 0.43 0.42 0.32 0.20 0.17 0.20 0.27 0.35 0.41 0.40 0.40
0.22 0.27 0.39 0.24 0.14 0.13 0.14 0.10 0.11 0.15 0.21 0.21 0.21 0.20 0.17 0.15 0.14 0.12 0.12 0.09 0.07 0.06 0.05 0.05 0.04 0.06 0.09 0.09 0.10 0.17 0.26 0.32 0.34 0.39 0.41 0.38 0.35 0.33 0.37 0.44 0.50 0.53 0.47 0.45
0.28 0.33 0.29 0.21 0.18 0.18 0.20 0.19 0.21 0.24 0.18 0.18 0.17 0.15 0.17 0.13 0.14 0.12 0.12 0.11 0.10 0.09 0.09 0.09 0.09 0.12 0.16 0.16 0.20 0.24 0.33 0.42 0.42 0.45 0.46 0.43 0.43 0.47 0.51 0.57 0.56 0.57 0.52 0.50
0.38 0.42 0.39 0.31 0.30 0.27 0.27 0.39 0.33 0.34 0.32 0.29 0.26 0.28 0.25 0.14 0.12 0.15 0.14 0.16 0.15 0.13 0.13 0.14 0.15 0.19 0.24 0.29 0.34 0.41 0.50 0.57 0.57 0.61 0.65 0.62 0.63 0.64 0.62 0.65 0.60 0.56 0.54 0.57
0.49 0.51 0.45 0.38 0.39 0.32 0.49 0.59 0.35 0.32 0.35 0.36 0.34 0.30 0.20 0.14 0.11 0.14 0.12 0.12 0.14 0.16 0.16 0.18 0.21 0.27 0.38 0.43 0.46 0.49 0.52 0.60 0.67 0.75 0.86 0.90 0.93 0.87 0.82 0.79 0.76 0.70 0.64 0.66
0.70 0.73 0.61 0.41 0.41 0.56 0.65 0.52 0.49 0.39 0.34 0.34 0.30 0.26 0.20 0.15 0.13 0.11 0.12 0.13 0.15 0.18 0.18 0.21 0.25 0.34 0.44 0.48 0.52 0.59 0.65 0.75 0.82 0.90 0.92 0.98 1.22 1.22 1.21 1.13 0.99 0.90 0.85 0.77
0.70 0.74 0.57 0.45 0.51 0.55 0.57 0.60 0.58 0.48 0.33 0.33 0.29 0.24 0.21 0.19 0.15 0.12 0.12 0.13 0.16 0.20 0.23 0.28 0.34 0.49 0.63 0.60 0.61 0.69 0.76 0.85 0.88 0.92 0.97 1.07 1.21 1.26 1.31 1.29 1.16 1.04 1.00 0.94
0.67 0.70 0.62 0.48 0.42 0.48 0.49 0.45 0.49 0.46 0.42 0.43 0.36 0.28 0.23 0.20 0.17 0.16 0.15 0.16 0.20 0.27 0.34 0.44 0.51 0.63 0.75 0.72 0.75 0.81 0.83 0.86 0.89 0.95 0.99 1.06 1.22 1.23 1.22 1.18 1.15 1.11 1.08 1.02
0.68 0.62 0.59 0.54 0.54 0.58 0.58 0.48 0.45 0.39 0.33 0.35 0.32 0.26 0.22 0.21 0.20 0.20 0.20 0.22 0.26 0.33 0.44 0.56 0.66 0.73 0.78 0.82 0.89 0.97 0.95 0.93 0.97 1.01 1.03 1.08 1.14 1.20 1.14 1.06 0.94 0.95 0.96 0.94
0.66 0.62 0.72 0.69 0.57 0.56 0.57 0.50 0.48 0.42 0.38 0.31 0.28 0.24 0.22 0.20 0.19 0.20 0.22 0.24 0.27 0.34 0.45 0.57 0.67 0.78 0.84 0.95 1.07 1.14 1.14 1.05 1.04 1.05 1.08 1.13 1.12 1.01 0.85 0.75 0.60 0.56 0.60 0.64
0.51 0.53 0.60 0.53 0.46 0.50 0.53 0.49 0.37 0.33 0.31 0.28 0.24 0.20 0.20 0.20 0.19 0.19 0.20 0.23 0.30 0.38 0.46 0.53 0.62 0.75 0.88 1.04 1.12 1.16 1.18 1.16 1.11 1.13 1.15 1.13 1.13 1.07 0.97 0.79 0.63 0.54 0.48 0.51
0.36 0.39 0.44 0.39 0.43 0.45 0.42 0.38 0.27 0.25 0.22 0.20 0.21 0.21 0.20 0.19 0.19 0.19 0.21 0.24 0.29 0.38 0.48 0.55 0.64 0.72 0.84 0.98 1.08 1.12 1.10 1.10 1.10 1.15 1.18 1.13 1.11 1.11 1.14 1.06 0.95 0.81 0.62 0.56
0.35 0.37 0.45 0.44 0.41 0.38 0.34 0.29 0.26 0.24 0.22 0.20 0.19 0.18 0.18 0.19 0.20 0.20 0.21 0.24 0.30 0.36 0.44 0.55 0.67 0.74 0.82 0.90 0.96 1.02 1.06 1.09 1.10 1.10 1.12 1.16 1.17 1.16 1.19 1.20 1.13 0.99 0.81 0.71
0.48 0.48 0.51 0.46 0.38 0.29 0.27 0.28 0.29 0.28 0.24 0.23 0.23 0.21 0.20 0.20 0.22 0.23 0.25 0.30 0.39 0.47 0.55 0.65 0.70 0.76 0.91 1.00 1.04 1.08 1.12 1.13 1.17 1.13 1.03 1.00 1.02 1.05 1.04 1.08 1.08 0.98 0.86 0.74
0.57 0.60 0.57 0.51 0.39 0.33 0.34 0.40 0.41 0.36 0.30 0.27 0.26 0.25 0.24 0.24 0.25 0.26 0.28 0.31 0.38 0.44 0.55 0.69 0.70 0.74 0.89 1.05 1.15 1.15 1.07 1.01 1.02 1.02 0.95 0.87 0.90 0.96 0.98 0.99 0.94 0.86 0.76 0.62
0.54 0.53 0.50 0.50 0.47 0.41 0.38 0.40 0.40 0.36 0.33 0.30 0.27 0.27 0.30 0.32 0.34 0.34 0.34 0.36 0.40 0.41 0.44 0.52 0.61 0.70 0.81 0.95 1.06 1.09 1.07 1.01 0.95 0.94 0.91 0.85 0.80 0.83 0.87 0.85 0.76 0.69 0.63 0.53
0.44 0.39 0.38 0.41 0.41 0.40 0.38 0.39 0.38 0.38 0.38 0.37 0.36 0.36 0.35 0.35 0.36 0.39 0.40 0.45 0.56 0.63 0.57 0.55 0.64 0.66 0.75 0.88 1.00 1.00 1.02 1.05 0.97 0.83 0.81 0.81 0.75 0.76 0.70 0.66 0.61 0.58 0.53 0.49
0.40 0.39 0.38 0.43 0.47 0.50 0.51 0.50 0.48 0.48 0.45 0.44 0.44 0.45 0.44 0.42 0.44 0.47 0.50 0.55 0.65 0.75 0.72 0.68 0.62 0.59 0.67 0.83 0.94 0.88 0.85 0.90 0.87 0.76 0.75 0.79 0.73 0.68 0.56 0.54 0.52 0.52 0.51 0.49
0.44 0.46 0.46 0.48 0.49 0.51 0.52 0.52 0.52 0.50 0.47 0.45 0.46 0.47 0.47 0.45 0.45 0.54 0.68 0.72 0.65 0.69 0.70 0.68 0.61 0.59 0.61 0.78 0.85 0.84 0.79 0.78 0.78 0.72 0.68 0.69 0.67 0.62 0.52 0.52 0.51 0.48 0.45 0.44
0.41 0.43 0.44 0.43 0.40 0.38 0.35 0.35 0.35 0.36 0.34 0.34 0.37 0.40 0.46 0.47 0.46 0.52 0.60 0.70 0.73 0.76 0.69 0.66 0.63 0.60 0.59 0.68 0.74 0.81 0.84 0.76 0.72 0.65 0.62 0.59 0.60 0.58 0.50 0.47 0.44 0.38 0.37 0.40
0.24 0.23 0.25 0.25 0.25 0.24 0.20 0.20 0.24 0.28 0.30 0.31 0.34 0.43 0.55 0.58 0.57 0.67 0.66 0.60 0.68 0.68 0.64 0.61 0.59 0.57 0.52 0.54 0.65 0.73 0.79 0.76 0.72 0.63 0.57 0.53 0.50 0.48 0.44 0.40 0.35 0.33 0.35 0.36
0.10 0.10 0.11 0.11 0.13 0.16 0.17 0.18 0.20 0.23 0.26 0.29 0.30 0.41 0.62 0.74 0.70 0.65 0.64 0.62 0.58 0.53 0.50 0.51 0.45 0.43 0.44 0.44 0.54 0.62 0.70 0.72 0.72 0.64 0.56 0.51 0.44 0.42 0.45 0.44 0.37 0.33 0.33 0.31
0.08 0.08 0.08 0.11 0.16 0.23 0.28 0.29 0.26 0.26 0.32 0.34 0.33 0.41 0.59 0.74 0.83 0.75 0.62 0.55 0.50 0.45 0.44 0.42 0.38 0.41 0.43 0.46 0.54 0.63 0.70 0.70 0.71 0.66 0.57 0.51 0.45 0.43 0.46 0.46 0.40 0.35 0.33 0.31
0.10 0.11 0.14 0.18 0.24 0.34 0.39 0.41 0.43 0.44 0.51 0.57 0.57 0.61 0.68 0.69 0.72 0.71 0.62 0.52 0.45 0.46 0.46 0.44 0.41 0.40 0.44 0.51 0.56 0.62 0.70 0.70 0.67 0.61 0.51 0.46 0.42 0.42 0.46 0.44 0.39 0.37 0.32 0.28
0.15 0.17 0.21 0.25 0.30 0.39 0.45 0.51 0.59 0.64 0.73 0.84 0.89 0.84 0.84 0.82 0.77 0.67 0.57 0.48 0.43 0.43 0.44 0.44 0.40 0.39 0.43 0.51 0.57 0.63 0.64 0.63 0.58 0.53 0.52 0.49 0.46 0.47 0.49 0.45 0.41 0.37 0.31 0.28